Location: Maccacari
(45.1333°N, 11.1333°E)
Time: 14:55:54
(UTC+00:00)

SR - Pass Details

Date: 26 June 2021
Orbit: 577 x 878 km, 66.7° (Epoch: 24 July)

Event Time Altitude Azimuth Distance (km) Brightness Sun altitude
Rises 20:10:18 0° 332° (NNW) 3,355 ? -9.3°
Reaches altitude 10° 20:14:54 10° 6° (N) 2,342 ? -9.8°
Maximum altitude 20:16:30 11° 24° (NNE) 2,227 ? -10.0°
Drops below altitude 10° 20:18:03 10° 41° (NE) 2,280 ? -10.2°
Sets 20:22:18 0° 76° (ENE) 3,110 ? -10.7°
